COSMOS 1228

Satellite information

Favourite Embed

Satellite Type and Status

PAYLOADIN ORBIT

Key statistics

Satellite COSMOS 1228 at a glance.

Uptime

16384

Days in orbit

Revolutions

≈ 12.6

Per day

Orbit

LEO

Low Earth Orbit

Inclination

74.0

Latest

Satellite identification and parameters

Extended collection of information and parameters for COSMOS 1228.

Object identification

Identified? True

Debris? False

Object name: COSMOS 1228

International designator: 1980-102A

Object number (NORAD): 12107

Object ID (CCSDS): 12107

Country: COMMONWEALTH OF INDEPENDENT STATES (CIS)

Current information (Y/N): Y

RCS size: MEDIUM

Orbital parameters

Period: 114.409 minutes

Inclination: 73.9964 deg

SMA: 7806.677 km

Apoapsis: 1464.333 km

Periapsis: 1392.75 km

RAAN: 237.4162 deg

Eccentricy: 0.0045847

Argument of periapsis: 326.7616 deg

Mean anomaly: 59.5614 deg

Mean motion: 12.58645631 rev/day

Mean motion (dot): -0.0000001 rev/day2

B* drag term: 0.000038614 1/REarth

Two-line elements (TLE)

Creation date: Oct. 31, 2025, 10:56 p.m.

Reference frame: TEME

Reference center: EARTH

Epoch: Oct. 31, 2025, 6:54 p.m. UTC

TLE line 0: 0 COSMOS 1228

TLE line 1: 1 12107U 80102A 25304.78794382 -.00000010 00000-0 38614-4 0 9992

TLE line 2: 2 12107 73.9964 237.4162 0045847 326.7616 59.5614 12.58645631 60888

Live tracking on map

Real-time ground track for satellite COSMOS 1228.

In-orbit conjunctions

A list of the most updated potential collisions computed for object COSMOS 1228.

Target Orbit TCA Probability of collision Miss distance Type
FENGYUN 1C DEB SSO 2024-10-21 07:35:27 0.0001475685 780.0 (m) DEBRIS

Associated space launch

Military communications satellites

COSMOS 1228 was lifted into orbit during the mission ‘Kosmos-3M | Strela-1M 201-208’, on board a Kosmos-3M space rocket.

The launch took place on Dec. 23, 1980, 10:48 p.m. from 132/1 (132L).

For more information about the launch, click the button.

Launch to space Kosmos-3M | Strela-1M 201-208
Kosmos-3M | Strela-1M 201-208

Agency: N/A

Status: Launch Successful

Launch date: Dec. 23, 1980, 10:48 p.m. UTC

Rocket: Kosmos-3M

Launch pad: 132/1 (132L)

Location: Plesetsk Cosmodrome, Russian Federation

...

Latest news about this satellite

There are no fresh news available about this satellite. Check back as we update our databases every day.


Newsletter sign-up

Weekly statistics, charts and insights to help you stay on top of the space industry.